Tracking 17151 objects as of 4-May-2015
HD Live streaming from Space Station

GLOBALSTAR M048

Track GLOBALSTAR M048 now!
10-day predictions
GLOBALSTAR M048 is classified as:


NORAD ID: 25872
Int'l Code: 1999-041A
Perigee: 1,987.5 km
Apogee: 2,010.0 km
Inclination: 51.9 °
Period: 127.0 minutes
Semi major axis: 8369 km
RCS: 2.5743 m2 (large)
Launch date: July 25, 1999
Source: Globalstar (GLOB)
Your satellite tracking list
Your tracking list is empty





NASA's NSSDC Master Catalog

Two Line Element Set (TLE):
1 25872U 99041A   15122.20343671 -.00000062  00000-0  20608-3 0  9992
2 25872 051.9341 115.7358 0013450 260.1802 182.4870 11.33801888705284

Source of the keplerian elements: AFSPC

N2YO: 5180